[[{"header":{"parameterUnit":"m.s-1","parameterCategory":2,"la1":30.2991,"la2":30.254,"lo1":-89.0895,"lo2":-89.0444,"dy":0.0017,"dx":0.0017,"nx":28,"ny":28,"refTime":"2024-08-19T03:00:00:Z","depth":"0","parameterNumber":2,"parameterNumberName":"U-component_of_CURRENTS"},"data":[0,0,0,0,0,0,0,0,0,0,0,0,0,0,0,0,0,0,0,0,0,0,0,0,0,0,0,0,0,0,0,0,0,0,0,0,0,0,0,0,0,0,0,0,0,0,0,0,0,0,0,0,0,0,0,0,0,0,-0.1995,-0.1997,0,-0.2217,-0.222,-0.2223,-0.2251,-0.2249,-0.2246,-0.2244,-0.2312,-0.2316,-0.232,0,0,0,0,0,0,0,0,0,0,0,0,0,-0.1828,-0.183,-0.1994,-0.1997,-0.1999,-0.2217,-0.222,-0.2224,-0.2252,-0.2249,-0.2246,-0.2243,-0.231,-0.2315,-0.232,0,0,0,0,0,0,0,0,0,0,0,0,0,-0.1964,-0.1831,-0.1994,-0.2036,-0.2042,-0.2216,-0.222,-0.2225,-0.2252,-0.2248,-0.2245,-0.2241,-0.2309,-0.2315,-0.2321,-0.2435,0,0,-0.234,-0.2343,0,0,0,0,0,0,0,0,-0.1956,-0.197,-0.2028,-0.2034,-0.204,-0.2199,-0.2187,-0.2286,-0.2253,-0.2177,-0.2244,-0.2239,-0.226,-0.227,-0.2328,-0.2438,-0.2441,-0.234,-0.2344,-0.2347,-0.2349,0,0,0,0,0,0,0,-0.1946,-0.1962,-0.2087,-0.2031,-0.2038,-0.2125,-0.2138,-0.2208,-0.2237,-0.2183,-0.2185,-0.2204,-0.2262,-0.2322,-0.2329,-0.2442,-0.234,-0.2346,-0.235,-0.2352,-0.2475,-0.2475,0,0,0,0,0,0,-0.1903,-0.1952,-0.2079,-0.2093,-0.1984,-0.2129,-0.2145,-0.2155,-0.224,-0.2249,-0.2207,-0.2205,-0.2314,-0.2322,-0.2331,-0.2334,-0.2347,-0.2353,-0.2356,-0.2476,-0.2475,-0.2475,0,0,0,0,0,0,-0.1898,-0.1912,-0.207,-0.2025,-0.205,-0.2134,-0.2147,-0.2161,-0.221,-0.2259,-0.2265,-0.2238,-0.2311,-0.2323,-0.2372,-0.234,-0.2356,-0.2361,-0.2476,-0.2476,-0.2475,-0.2425,0,0,0,0,0,0,-0.1893,-0.1909,-0.1916,-0.2022,-0.2051,-0.2167,-0.2151,-0.2168,-0.2227,-0.2225,-0.2288,-0.2292,-0.2309,-0.2362,-0.2378,-0.2349,-0.2366,-0.2477,-0.2476,-0.2475,-0.2427,-0.2423,-0.2419,0,0,0,0,0,-0.1886,-0.1909,-0.1915,-0.1931,-0.2053,-0.2169,-0.2194,-0.2244,-0.2231,-0.2271,-0.2291,-0.2289,-0.2365,-0.2369,-0.2387,-0.2359,-0.2477,-0.2476,-0.2475,-0.2429,-0.2423,-0.2419,0,0,0,0,0,0,-0.1852,-0.1918,-0.1925,-0.1968,-0.2055,-0.2171,-0.2208,-0.2252,-0.2312,-0.2284,-0.2323,-0.2331,-0.2334,-0.2378,-0.2381,-0.2388,-0.2407,-0.2409,-0.2365,-0.2361,-0.2356,-0.2289,-0.2371,0,0,0,0,0,-0.1845,-0.1867,-0.1958,-0.1994,-0.2023,-0.2118,-0.2172,-0.2207,-0.227,-0.2294,-0.2338,-0.2356,-0.2356,-0.2382,-0.2396,-0.2456,-0.2434,-0.2436,-0.2432,-0.2428,-0.2383,-0.234,-0.2327,-0.2471,-0.2471,-0.2471,0,0,-0.1845,-0.1881,-0.1897,-0.1988,-0.2045,-0.2086,-0.2141,-0.2211,-0.2234,-0.2291,-0.2329,-0.2344,-0.2361,-0.2378,-0.2385,-0.2412,-0.2382,-0.2427,-0.2423,-0.2379,-0.2337,-0.2323,-0.231,-0.2471,-0.2471,-0.2471,0,0,-0.1844,-0.1879,-0.1888,-0.1946,-0.2022,-0.2078,-0.2092,-0.2201,-0.2231,-0.2306,-0.2288,-0.2291,-0.2379,-0.235,-0.235,-0.2347,-0.234,-0.2355,-0.231,-0.227,-0.2257,-0.2245,-0.222,-0.2206,-0.2379,-0.2378,-0.2378,0,-0.1838,-0.1853,-0.192,-0.1938,-0.1969,-0.2057,-0.2075,-0.2137,-0.2249,-0.226,-0.2296,-0.2321,-0.2344,-0.2298,-0.228,-0.2329,-0.2315,-0.233,-0.2261,-0.2249,-0.2237,-0.2215,-0.22,-0.2376,-0.2376,-0.2377,-0.2377,0,-0.1837,-0.1848,-0.1861,-0.1886,-0.1939,-0.198,-0.2047,-0.2094,-0.2144,-0.2195,-0.2194,-0.2239,-0.2245,-0.2251,-0.2271,-0.219,-0.221,-0.224,-0.2267,-0.2219,-0.22,-0.2185,-0.2372,-0.2373,-0.2374,-0.2375,0,0,-0.1811,-0.185,-0.1847,-0.1848,-0.1909,-0.1958,-0.1969,-0.202,-0.2021,-0.2103,-0.2099,-0.2097,-0.212,-0.2115,-0.2135,-0.2108,-0.2033,-0.2142,-0.2141,-0.2104,-0.1949,-0.1827,-0.18,-0.2056,-0.2053,-0.205,-0.1976,0,-0.1783,-0.1791,-0.1816,-0.1823,-0.1833,-0.1888,-0.1905,-0.195,-0.2002,-0.2029,-0.2035,-0.2046,-0.2071,-0.2081,-0.2042,-0.2038,-0.1987,-0.2049,-0.201,-0.2008,-0.1894,-0.1775,-0.1672,-0.1582,-0.1961,-0.1959,-0.1957,0,-0.1755,-0.1764,-0.1758,-0.1784,-0.1792,-0.1804,-0.1827,-0.1861,-0.1887,-0.1929,-0.1919,-0.1952,-0.1909,-0.1953,-0.1879,-0.1924,-0.1901,-0.1898,-0.1897,-0.1774,-0.1855,-0.1689,-0.1541,-0.1541,-0.1935,-0.1937,-0.1938,0,-0.1699,-0.172,-0.1708,-0.1719,-0.1762,-0.1757,-0.1782,-0.1817,-0.1852,-0.1855,-0.189,-0.1844,-0.1866,-0.1804,-0.1805,-0.1845,-0.172,-0.1794,-0.1646,-0.1641,-0.1531,-0.1519,-0.1353,-0.1679,-0.1679,-0.1679,-0.1679,0,-0.1653,-0.1647,-0.1682,-0.1676,-0.1684,-0.1714,-0.1719,-0.1751,-0.1779,-0.1808,-0.1829,-0.1832,-0.1831,-0.1791,-0.1755,-0.1633,-0.168,-0.1568,-0.1578,-0.1514,-0.1502,-0.1481,-0.153,-0.1676,-0.1677,-0.1677,-0.1678,0,-0.1588,-0.161,-0.161,-0.1638,-0.1657,-0.1659,-0.1715,-0.1739,-0.1761,-0.1794,-0.1803,-0.1828,-0.1752,-0.1715,-0.1633,-0.1584,-0.1433,-0.142,-0.1342,-0.1339,-0.1182,-0.1234,-0.1068,-0.104,-0.1235,-0.1231,-0.1227,0,-0.1552,-0.1539,-0.1582,-0.1606,-0.1617,-0.1637,-0.1682,-0.1728,-0.1773,-0.1786,-0.1816,-0.1749,-0.1653,-0.1468,-0.1351,-0.1195,-0.126,-0.1054,-0.1073,-0.1079,-0.1148,-0.1223,-0.1221,-0.0945,-0.0939,-0.0935,-0.0931,0,-0.1478,-0.1493,-0.1503,-0.1553,-0.1598,-0.1642,-0.1701,-0.1719,-0.1775,-0.1751,-0.1672,-0.1556,-0.1396,-0.115,-0.0981,-0.0908,-0.1014,-0.0955,-0.0978,-0.0866,-0.092,-0.0932,-0.1128,-0.0892,-0.0896,-0.0899,-0.0901,-0.0902,-0.1427,-0.1423,-0.1444,-0.1485,-0.1546,-0.1583,-0.1553,-0.1603,-0.156,-0.1442,-0.1456,-0.1171,-0.1012,-0.0706,-0.0663,-0.0558,-0.0676,-0.055,-0.0607,-0.068,-0.0629,-0.0712,-0.0475,-0.0477,-0.0478,-0.0479,-0.048,0,-0.1338,-0.1344,-0.1383,-0.1406,-0.1412,-0.1481,-0.1526,-0.144,-0.1294,-0.1182,-0.0988,-0.0629,-0.0425,-0.0354,-0.0262,-0.024,-0.0302,-0.0269,-0.0381,-0.0392,-0.0457,-0.0419,-0.0136,-0.0136,-0.0136,-0.0136,-0.0136,-0.0136,-0.1289,-0.127,-0.1283,-0.1238,-0.1251,-0.119,-0.1155,-0.1048,-0.0932,-0.0565,-0.0296,-0.0159,-0.01,-0.0091,-0.0118,-0.0134,-0.021,-0.0167,-0.0255,-0.0344,-0.0377,-0.0409,-0.0381,-0.0095,-0.0095,-0.016,-0.0161,-0.0161]},{"header":{"parameterUnit":"m.s-1","parameterCategory":2,"la1":30.2991,"la2":30.254,"lo1":-89.0895,"lo2":-89.0444,"dy":0.0017,"dx":0.0017,"nx":28,"ny":28,"refTime":"2024-08-19T03:00:00:Z","depth":"0","parameterNumber":3,"parameterNumberName":"V-component_of_CURRENTS"},"data":[0,0,0,0,0,0,0,0,0,0,0,0,0,0,0,0,0,0,0,0,0,0,0,0,0,0,0,0,0,0,0,0,0,0,0,0,0,0,0,0,0,0,0,0,0,0,0,0,0,0,0,0,0,0,0,0,0,0,-0.0412,-0.0411,0,-0.0317,-0.0316,-0.0314,-0.0246,-0.0246,-0.0246,-0.0246,0.0051,0.0058,0.0066,0,0,0,0,0,0,0,0,0,0,0,0,0,-0.0407,-0.0407,-0.0412,-0.0411,-0.041,-0.0317,-0.0315,-0.0314,-0.0246,-0.0246,-0.0246,-0.0246,0.0048,0.0057,0.0067,0,0,0,0,0,0,0,0,0,0,0,0,0,-0.0365,-0.0408,-0.0412,-0.037,-0.0366,-0.0318,-0.0315,-0.0313,-0.0246,-0.0246,-0.0246,-0.0246,0.0045,0.0057,0.0068,0.0141,0,0,0.0104,0.011,0,0,0,0,0,0,0,0,-0.0367,-0.0364,-0.0377,-0.0373,-0.0368,-0.0299,-0.0205,-0.0153,-0.0246,-0.0285,-0.0246,-0.0246,-0.0051,-0.0032,-0.0008,0.0155,0.0168,0.0106,0.0113,0.0118,0.0121,0,0,0,0,0,0,0,-0.037,-0.0367,-0.0368,-0.0376,-0.0371,-0.0313,-0.0307,-0.0195,-0.0161,-0.0281,-0.0278,-0.0277,-0.0047,-0.002,0.0,0.0172,0.0105,0.0116,0.0123,0.0128,0.0414,0.0414,0,0,0,0,0,0,-0.0402,-0.0371,-0.0371,-0.0366,-0.0375,-0.0314,-0.0307,-0.0316,-0.0166,-0.0147,-0.0277,-0.0274,-0.004,-0.0014,0.0011,0.009,0.0118,0.0129,0.0136,0.0413,0.0414,0.0414,0,0,0,0,0,0,-0.0402,-0.0403,-0.0375,-0.037,-0.0363,-0.0316,-0.0325,-0.0314,-0.0292,-0.0166,-0.0142,-0.0268,-0.0039,-0.0006,0.0102,0.0103,0.0134,0.0145,0.0413,0.0413,0.0414,0.0261,0,0,0,0,0,0,-0.0402,-0.0404,-0.041,-0.0373,-0.0365,-0.0356,-0.0325,-0.0313,-0.0295,-0.029,-0.0149,-0.0122,-0.0036,0.0083,0.0114,0.012,0.0154,0.0412,0.0413,0.0414,0.0265,0.0256,0.0249,0,0,0,0,0,-0.0402,-0.0423,-0.0411,-0.041,-0.0379,-0.0357,-0.0346,-0.0307,-0.0295,-0.0286,-0.0195,-0.0127,0.0111,0.0093,0.0129,0.0139,0.0412,0.0413,0.0414,0.0269,0.0258,0.0249,0,0,0,0,0,0,-0.0423,-0.0417,-0.0403,-0.042,-0.0394,-0.0348,-0.0341,-0.0315,-0.024,-0.0234,-0.0113,-0.0078,0.0012,0.0103,0.008,0.0225,0.0271,0.0279,0.0149,0.014,0.0131,0.0096,0.0164,0,0,0,0,0,-0.0433,-0.0446,-0.0423,-0.0433,-0.0428,-0.0385,-0.0369,-0.0349,-0.0287,-0.0256,-0.0158,-0.0049,0.0046,0.011,0.021,0.0301,0.0329,0.033,0.0321,0.0313,0.031,0.0311,0.03,0.0418,0.0418,0.0418,0,0,-0.0445,-0.0442,-0.0449,-0.0437,-0.0415,-0.0413,-0.0374,-0.0367,-0.0355,-0.0229,-0.0166,-0.0073,0.0062,0.0147,0.0197,0.0224,0.0298,0.0315,0.0307,0.0308,0.0311,0.0299,0.0288,0.0419,0.0419,0.0418,0,0,-0.0477,-0.0474,-0.0494,-0.0481,-0.0465,-0.044,-0.0445,-0.0401,-0.0371,-0.0304,-0.022,-0.0132,0.0028,0.0111,0.0176,0.0191,0.0245,0.0227,0.0169,0.0168,0.0157,0.0148,0.0161,0.0154,0.023,0.023,0.023,0,-0.0488,-0.0513,-0.0492,-0.0505,-0.0502,-0.046,-0.0475,-0.0439,-0.0361,-0.0337,-0.03,-0.0114,0.0008,0.0093,0.0104,0.017,0.0174,0.0187,0.015,0.0142,0.0135,0.0152,0.0146,0.0223,0.0224,0.0224,0.0225,0,-0.0531,-0.0549,-0.0561,-0.0565,-0.0554,-0.0563,-0.0527,-0.0505,-0.0463,-0.042,-0.034,-0.02,-0.0094,-0.0039,0.0051,0.0072,0.0091,0.0123,0.0157,0.0112,0.0135,0.0131,0.0212,0.0215,0.0217,0.0219,0,0,-0.0564,-0.0588,-0.0592,-0.0611,-0.0592,-0.0595,-0.0582,-0.0557,-0.0566,-0.0475,-0.0468,-0.0293,-0.0242,-0.0163,-0.0059,-0.003,-0.0056,0.0022,0.0025,0.0003,-0.0068,0.0052,0.0061,-0.0058,-0.0059,-0.006,-0.0037,0,-0.0601,-0.0652,-0.0644,-0.0683,-0.0706,-0.0673,-0.0669,-0.0642,-0.06,-0.0579,-0.0464,-0.0408,-0.0285,-0.0249,-0.0204,-0.0091,-0.0071,-0.0065,0.001,0.0013,0.0097,0.006,0.0089,0.012,-0.004,-0.0041,-0.0041,0,-0.0644,-0.0674,-0.0725,-0.0761,-0.0769,-0.0781,-0.0789,-0.0781,-0.074,-0.071,-0.0651,-0.0572,-0.0481,-0.0398,-0.0266,-0.028,-0.0185,-0.0106,-0.0104,0.0061,0.0127,0.0147,0.0121,0.0172,-0.0045,-0.0045,-0.0045,0,-0.0684,-0.0733,-0.0781,-0.079,-0.0816,-0.0835,-0.0844,-0.0822,-0.0838,-0.0808,-0.0808,-0.0714,-0.0636,-0.0557,-0.0321,-0.0336,-0.0184,-0.0191,0.0001,0.001,0.0084,0.0103,0.0094,-0.0134,-0.0135,-0.0135,-0.0135,0,-0.0728,-0.0768,-0.0813,-0.0838,-0.0924,-0.09,-0.0975,-0.0968,-0.0966,-0.0948,-0.0884,-0.0809,-0.0673,-0.0536,-0.0396,-0.017,-0.0241,-0.0015,0.0021,0.0037,0.0051,0.0144,0.0169,-0.0134,-0.0134,-0.0134,-0.0134,0,-0.0764,-0.0789,-0.0862,-0.0913,-0.0951,-0.1009,-0.1091,-0.1133,-0.1102,-0.108,-0.1075,-0.0907,-0.0693,-0.0532,-0.0334,-0.0215,0.0009,0.0049,0.0082,0.0123,0.0298,0.0316,0.0384,0.0463,0.0174,0.0177,0.018,0,-0.0788,-0.0824,-0.0936,-0.1017,-0.1053,-0.1146,-0.1217,-0.1222,-0.1217,-0.1069,-0.1027,-0.0834,-0.0588,-0.0279,-0.0078,0.0121,0.0192,0.0259,0.0246,0.0314,0.0357,0.0352,0.0413,0.027,0.0273,0.0275,0.0277,0,-0.083,-0.0869,-0.0941,-0.1107,-0.121,-0.13,-0.1344,-0.1337,-0.1245,-0.1127,-0.0831,-0.0633,-0.0334,-0.003,0.02,0.0314,0.0297,0.0319,0.0357,0.0413,0.0436,0.053,0.0257,0.03,0.0298,0.0296,0.0295,0.0294,-0.0871,-0.0945,-0.1048,-0.1203,-0.1311,-0.1327,-0.1297,-0.1215,-0.107,-0.0676,-0.0567,-0.01,0.0047,0.0398,0.0471,0.0576,0.0541,0.0596,0.0603,0.0585,0.0689,0.0496,0.0613,0.0613,0.0612,0.0612,0.0612,0,-0.09,-0.099,-0.114,-0.1268,-0.1326,-0.1374,-0.1293,-0.1113,-0.0757,-0.0366,0.0028,0.0515,0.0674,0.0743,0.0795,0.084,0.0813,0.0854,0.0802,0.0847,0.0636,0.067,0.0845,0.0845,0.0845,0.0845,0.0845,0.0845,-0.0928,-0.1048,-0.1124,-0.1224,-0.1278,-0.1203,-0.1074,-0.0717,-0.036,0.0382,0.0869,0.1184,0.1185,0.102,0.1005,0.1008,0.1065,0.1041,0.11,0.0891,0.0865,0.084,0.0875,0.109,0.1091,0.1295,0.1297,0.1299]}],[{"header":{"parameterUnit":"m.s-1","parameterCategory":2,"la1":30.2991,"la2":30.254,"lo1":-89.0895,"lo2":-89.0444,"dy":0.0017,"dx":0.0017,"nx":28,"ny":28,"refTime":"2024-08-19T03:00:00:Z","depth":"2","parameterNumber":2,"parameterNumberName":"U-component_of_CURRENTS"},"data":[0,0,0,0,0,0,0,0,0,0,0,0,0,0,0,0,0,0,0,0,0,0,0,0,0,0,0,0,0,0,0,0,0,0,0,0,0,0,0,0,0,0,0,0,0,0,0,0,0,0,0,0,0,0,0,0,0,0,-0.1774,-0.1775,0,-0.1795,-0.1794,-0.1794,-0.1761,-0.1761,-0.176,-0.1759,-0.1873,-0.1876,-0.188,0,0,0,0,0,0,0,0,0,0,0,0,0,-0.1687,-0.1688,-0.1774,-0.1775,-0.1775,-0.1795,-0.1794,-0.1794,-0.1762,-0.1761,-0.176,-0.1759,-0.1872,-0.1876,-0.188,0,0,0,0,0,0,0,0,0,0,0,0,0,-0.1713,-0.1689,-0.1774,-0.1765,-0.1764,-0.1795,-0.1794,-0.1794,-0.1762,-0.1761,-0.176,-0.1759,-0.187,-0.1876,-0.1881,-0.1936,0,0,-0.1898,-0.19,0,0,0,0,0,0,0,0,-0.1712,-0.1716,-0.1765,-0.1765,-0.1765,-0.1778,-0.1805,-0.1848,-0.1762,-0.1758,-0.1759,-0.1758,-0.1854,-0.1861,-0.1859,-0.1941,-0.1946,-0.1898,-0.1902,-0.1904,-0.1906,0,0,0,0,0,0,0,-0.171,-0.1715,-0.1777,-0.1766,-0.1766,-0.1753,-0.1756,-0.1812,-0.181,-0.1758,-0.1757,-0.1767,-0.1854,-0.1853,-0.1862,-0.1948,-0.1898,-0.1903,-0.1907,-0.1909,-0.2072,-0.2072,0,0,0,0,0,0,-0.172,-0.1714,-0.1777,-0.1778,-0.1741,-0.1756,-0.1759,-0.1771,-0.1807,-0.1812,-0.1768,-0.1766,-0.1844,-0.1855,-0.1866,-0.1902,-0.1904,-0.1909,-0.1912,-0.2071,-0.2072,-0.2073,0,0,0,0,0,0,-0.1718,-0.1725,-0.1776,-0.175,-0.1756,-0.176,-0.1774,-0.1773,-0.1773,-0.1814,-0.182,-0.1771,-0.1844,-0.1858,-0.1919,-0.1908,-0.1912,-0.1917,-0.2069,-0.2071,-0.2072,-0.1996,0,0,0,0,0,0,-0.1715,-0.1724,-0.1733,-0.1751,-0.1758,-0.1789,-0.1775,-0.1774,-0.1784,-0.178,-0.182,-0.1828,-0.1844,-0.1911,-0.1924,-0.1915,-0.1921,-0.2068,-0.207,-0.2072,-0.1997,-0.1995,-0.1992,0,0,0,0,0,-0.1712,-0.1732,-0.1733,-0.1741,-0.1771,-0.1789,-0.1791,-0.1787,-0.1785,-0.1783,-0.1817,-0.1827,-0.1932,-0.1917,-0.1932,-0.1924,-0.2067,-0.2069,-0.2072,-0.1998,-0.1995,-0.1992,0,0,0,0,0,0,-0.1697,-0.1731,-0.1733,-0.1761,-0.1772,-0.1785,-0.1791,-0.1794,-0.1817,-0.1821,-0.1851,-0.1863,-0.1912,-0.1944,-0.1926,-0.198,-0.1998,-0.2003,-0.1936,-0.1934,-0.1932,-0.1865,-0.1926,0,0,0,0,0,-0.1701,-0.172,-0.1746,-0.1764,-0.1775,-0.1785,-0.1793,-0.1793,-0.1819,-0.1825,-0.1853,-0.1894,-0.1935,-0.1954,-0.2001,-0.204,-0.202,-0.2045,-0.2042,-0.204,-0.1999,-0.1953,-0.194,-0.208,-0.208,-0.208,0,0,-0.17,-0.1721,-0.1732,-0.1762,-0.1771,-0.178,-0.1785,-0.1802,-0.1796,-0.1842,-0.1853,-0.1899,-0.195,-0.1981,-0.2004,-0.2002,-0.2,-0.2043,-0.204,-0.2,-0.1954,-0.1939,-0.1926,-0.2082,-0.2082,-0.2081,0,0,-0.17,-0.1729,-0.1738,-0.1752,-0.1774,-0.1782,-0.179,-0.1809,-0.1802,-0.1837,-0.186,-0.1875,-0.1966,-0.1953,-0.1972,-0.1989,-0.1999,-0.2041,-0.1959,-0.1916,-0.1902,-0.1889,-0.1872,-0.1858,-0.2026,-0.2026,-0.2026,0,-0.1695,-0.1709,-0.1741,-0.1751,-0.1758,-0.1784,-0.1784,-0.1789,-0.1819,-0.1812,-0.1836,-0.1895,-0.1928,-0.1924,-0.192,-0.1972,-0.1976,-0.1959,-0.1905,-0.1892,-0.188,-0.1865,-0.1851,-0.2022,-0.2023,-0.2023,-0.2023,0,-0.1693,-0.1705,-0.1715,-0.1731,-0.1744,-0.1754,-0.177,-0.1776,-0.1788,-0.1785,-0.1795,-0.1824,-0.1842,-0.1864,-0.1896,-0.1843,-0.1885,-0.1912,-0.1893,-0.186,-0.1849,-0.1835,-0.2018,-0.2019,-0.202,-0.2021,0,0,-0.1669,-0.1705,-0.1703,-0.1704,-0.1734,-0.1742,-0.1741,-0.1735,-0.1724,-0.1736,-0.1708,-0.1731,-0.1733,-0.1751,-0.1784,-0.1731,-0.1653,-0.1783,-0.1782,-0.1732,-0.1586,-0.1526,-0.1506,-0.1684,-0.168,-0.1678,-0.162,0,-0.1647,-0.1655,-0.1677,-0.1675,-0.1681,-0.1705,-0.1701,-0.17,-0.1706,-0.1693,-0.1675,-0.1686,-0.1698,-0.1714,-0.1654,-0.1679,-0.1612,-0.1667,-0.1654,-0.1653,-0.1574,-0.1484,-0.1369,-0.1298,-0.1606,-0.1604,-0.1602,0,-0.1622,-0.1632,-0.1628,-0.1644,-0.1648,-0.165,-0.1645,-0.1646,-0.1634,-0.1639,-0.1612,-0.1631,-0.1569,-0.159,-0.1514,-0.1567,-0.1547,-0.1541,-0.154,-0.1484,-0.1563,-0.1381,-0.1262,-0.1579,-0.1581,-0.1583,-0.1584,0,-0.1575,-0.1592,-0.1584,-0.1592,-0.1618,-0.1611,-0.1621,-0.162,-0.162,-0.16,-0.1605,-0.155,-0.1546,-0.1486,-0.1471,-0.1501,-0.1394,-0.1439,-0.135,-0.135,-0.1239,-0.1232,-0.1329,-0.1329,-0.1329,-0.1329,-0.1329,0,-0.1538,-0.1531,-0.1564,-0.156,-0.1548,-0.158,-0.1563,-0.1571,-0.158,-0.1567,-0.1569,-0.1538,-0.152,-0.1478,-0.1443,-0.1345,-0.1363,-0.1286,-0.1299,-0.1218,-0.121,-0.145,-0.1464,-0.1327,-0.1328,-0.1328,-0.1328,0,-0.1484,-0.1506,-0.1503,-0.1524,-0.1526,-0.152,-0.1544,-0.1543,-0.1558,-0.1544,-0.1542,-0.1533,-0.146,-0.1434,-0.1356,-0.1313,-0.123,-0.1191,-0.1108,-0.1109,-0.1227,-0.1239,-0.1064,-0.106,-0.1057,-0.1055,-0.1053,0,-0.1456,-0.1449,-0.1469,-0.1466,-0.1473,-0.1474,-0.1483,-0.1519,-0.1522,-0.1518,-0.1505,-0.146,-0.1374,-0.1248,-0.1157,-0.1052,-0.1135,-0.0915,-0.0903,-0.1152,-0.1185,-0.1202,-0.1218,-0.0757,-0.0753,-0.0749,-0.0746,0,-0.1399,-0.141,-0.1413,-0.1401,-0.1409,-0.1414,-0.1426,-0.1419,-0.1454,-0.1434,-0.1364,-0.1294,-0.1182,-0.0994,-0.0901,-0.0835,-0.092,-0.0838,-0.1085,-0.0843,-0.0857,-0.0893,-0.0919,-0.0715,-0.0718,-0.0721,-0.0722,-0.0724,-0.1354,-0.1345,-0.1342,-0.1322,-0.1338,-0.132,-0.1269,-0.1289,-0.1249,-0.117,-0.1188,-0.1037,-0.0982,-0.0728,-0.0649,-0.0599,-0.0671,-0.0639,-0.0652,-0.0668,-0.0643,-0.0651,-0.0468,-0.0469,-0.0471,-0.0472,-0.0473,0,-0.1283,-0.1272,-0.1257,-0.1226,-0.1198,-0.1231,-0.1205,-0.1125,-0.1021,-0.0983,-0.0887,-0.0705,-0.055,-0.0512,-0.0357,-0.032,-0.0349,-0.032,-0.0353,-0.0381,-0.0407,-0.0373,-0.0125,-0.0124,-0.0124,-0.0123,0,0,-0.1242,-0.1199,-0.1183,-0.1082,-0.1058,-0.0952,-0.0902,-0.0813,-0.0742,-0.0597,-0.0511,-0.0504,-0.0475,-0.0308,-0.0252,-0.0159,-0.0283,-0.0146,-0.0417,-0.0484,-0.051,-0.057,-0.0545,0,0,0,0,0]},{"header":{"parameterUnit":"m.s-1","parameterCategory":2,"la1":30.2991,"la2":30.254,"lo1":-89.0895,"lo2":-89.0444,"dy":0.0017,"dx":0.0017,"nx":28,"ny":28,"refTime":"2024-08-19T03:00:00:Z","depth":"2","parameterNumber":3,"parameterNumberName":"V-component_of_CURRENTS"},"data":[0,0,0,0,0,0,0,0,0,0,0,0,0,0,0,0,0,0,0,0,0,0,0,0,0,0,0,0,0,0,0,0,0,0,0,0,0,0,0,0,0,0,0,0,0,0,0,0,0,0,0,0,0,0,0,0,0,0,-0.0398,-0.0397,0,-0.0379,-0.0379,-0.0379,-0.0344,-0.0343,-0.0342,-0.0341,-0.0215,-0.0212,-0.021,0,0,0,0,0,0,0,0,0,0,0,0,0,-0.0373,-0.0374,-0.0398,-0.0397,-0.0397,-0.0379,-0.0379,-0.0379,-0.0344,-0.0343,-0.0342,-0.0341,-0.0216,-0.0213,-0.0209,0,0,0,0,0,0,0,0,0,0,0,0,0,-0.0372,-0.0374,-0.0398,-0.0377,-0.0375,-0.0379,-0.0379,-0.0379,-0.0344,-0.0343,-0.0342,-0.0341,-0.0217,-0.0213,-0.0209,-0.0207,0,0,-0.0197,-0.0195,0,0,0,0,0,0,0,0,-0.0373,-0.0374,-0.038,-0.0378,-0.0376,-0.0362,-0.0324,-0.0316,-0.0344,-0.0356,-0.0341,-0.034,-0.0254,-0.0247,-0.0249,-0.0201,-0.0195,-0.0196,-0.0194,-0.0192,-0.0191,0,0,0,0,0,0,0,-0.0373,-0.0374,-0.0391,-0.038,-0.0378,-0.0358,-0.0357,-0.0322,-0.031,-0.0355,-0.0352,-0.035,-0.0252,-0.0253,-0.0245,-0.0193,-0.0197,-0.0193,-0.019,-0.0189,-0.0125,-0.0126,0,0,0,0,0,0,-0.0377,-0.0374,-0.0392,-0.039,-0.0371,-0.036,-0.0359,-0.0368,-0.0313,-0.0304,-0.0351,-0.0348,-0.026,-0.025,-0.024,-0.0207,-0.0192,-0.0189,-0.0186,-0.0124,-0.0125,-0.0126,0,0,0,0,0,0,-0.0377,-0.0379,-0.0392,-0.038,-0.0381,-0.0361,-0.0372,-0.0368,-0.0367,-0.0311,-0.03,-0.0353,-0.0259,-0.0246,-0.0215,-0.0203,-0.0187,-0.0183,-0.0124,-0.0125,-0.0126,-0.0157,0,0,0,0,0,0,-0.0376,-0.038,-0.0387,-0.0381,-0.0381,-0.0398,-0.0373,-0.0369,-0.0367,-0.0363,-0.0309,-0.0296,-0.0257,-0.0222,-0.0211,-0.0197,-0.018,-0.0123,-0.0124,-0.0125,-0.0155,-0.0159,-0.0163,0,0,0,0,0,-0.0376,-0.0397,-0.0388,-0.0389,-0.0393,-0.0399,-0.0397,-0.0379,-0.0368,-0.0373,-0.0338,-0.0298,-0.0222,-0.0219,-0.0207,-0.0191,-0.0122,-0.0124,-0.0125,-0.0154,-0.0158,-0.0162,0,0,0,0,0,0,-0.0392,-0.0395,-0.0385,-0.0406,-0.0401,-0.0392,-0.0397,-0.0386,-0.0367,-0.0361,-0.0307,-0.0292,-0.026,-0.0232,-0.023,-0.018,-0.0165,-0.0165,-0.0191,-0.0195,-0.0199,-0.0195,-0.0177,0,0,0,0,0,-0.04,-0.0414,-0.0408,-0.0424,-0.0424,-0.0412,-0.0411,-0.0402,-0.0385,-0.0376,-0.0339,-0.0299,-0.026,-0.0233,-0.0201,-0.0174,-0.0142,-0.0158,-0.0162,-0.0165,-0.0156,-0.0109,-0.0107,-0.0131,-0.0131,-0.0131,0,0,-0.0411,-0.0413,-0.0421,-0.0427,-0.0423,-0.0428,-0.0409,-0.0417,-0.0412,-0.0363,-0.0347,-0.0312,-0.0259,-0.0228,-0.021,-0.0198,-0.0145,-0.0167,-0.017,-0.0159,-0.011,-0.0107,-0.0105,-0.0132,-0.0132,-0.0132,0,0,-0.044,-0.0442,-0.0462,-0.046,-0.0458,-0.0448,-0.0452,-0.0446,-0.0433,-0.0421,-0.0378,-0.0342,-0.0295,-0.0248,-0.0218,-0.0226,-0.017,-0.0215,-0.0218,-0.0173,-0.017,-0.0167,-0.0135,-0.0129,-0.0211,-0.0211,-0.0211,0,-0.045,-0.0474,-0.0467,-0.0481,-0.0478,-0.0459,-0.0471,-0.0459,-0.0442,-0.0421,-0.0421,-0.0341,-0.0302,-0.0237,-0.024,-0.0229,-0.0199,-0.0202,-0.0176,-0.0172,-0.0168,-0.0136,-0.0129,-0.0213,-0.0213,-0.0212,-0.0212,0,-0.0488,-0.0504,-0.0516,-0.0521,-0.0518,-0.053,-0.0508,-0.0499,-0.0483,-0.0458,-0.0409,-0.0366,-0.031,-0.0296,-0.0266,-0.0213,-0.02,-0.0189,-0.016,-0.0167,-0.0134,-0.0126,-0.0215,-0.0215,-0.0214,-0.0214,0,0,-0.0518,-0.0539,-0.0543,-0.0547,-0.054,-0.0542,-0.0529,-0.0503,-0.048,-0.0457,-0.0419,-0.0362,-0.0329,-0.0294,-0.025,-0.021,-0.0168,-0.0188,-0.0185,-0.015,-0.007,-0.0045,-0.0034,-0.0145,-0.0143,-0.0142,-0.0063,0,-0.0546,-0.0582,-0.0579,-0.0597,-0.0609,-0.058,-0.0566,-0.0535,-0.0498,-0.0458,-0.0397,-0.0352,-0.0328,-0.03,-0.0254,-0.0185,-0.0145,-0.019,-0.0075,-0.0072,-0.0042,-0.0022,-0.0059,0.0011,-0.0054,-0.0053,-0.0052,0,-0.0582,-0.0598,-0.063,-0.0627,-0.0628,-0.0631,-0.0589,-0.0575,-0.0504,-0.0473,-0.041,-0.0358,-0.0283,-0.0278,-0.0157,-0.0185,-0.013,-0.0085,-0.0081,-0.0035,-0.003,0.0009,0.0029,-0.0037,-0.0038,-0.004,-0.0041,0,-0.0603,-0.0629,-0.0655,-0.0657,-0.0653,-0.065,-0.0638,-0.058,-0.0552,-0.0479,-0.0447,-0.035,-0.0307,-0.0221,-0.0126,-0.0136,-0.0001,-0.0005,0.0069,0.0071,0.0074,0.0074,0.0077,0.0077,0.0077,0.0076,0.0076,0,-0.0633,-0.065,-0.0671,-0.0683,-0.0691,-0.0679,-0.0657,-0.063,-0.0575,-0.0527,-0.0458,-0.0395,-0.0291,-0.0197,-0.0117,0.0009,0.0009,0.0081,0.0102,0.0059,0.0057,0.0043,0.0038,0.0079,0.0079,0.0078,0.0078,0,-0.0655,-0.0672,-0.07,-0.0709,-0.0706,-0.0715,-0.0682,-0.0663,-0.0615,-0.0553,-0.0533,-0.0423,-0.029,-0.018,-0.0036,0.0018,0.0132,0.0173,0.011,0.0123,0.0168,0.016,0.0266,0.0268,0.0269,0.027,0.0271,0,-0.0671,-0.0693,-0.072,-0.0727,-0.0735,-0.0732,-0.0724,-0.0688,-0.0654,-0.0554,-0.0523,-0.0394,-0.0279,-0.0069,0.0058,0.0204,0.0202,0.0241,0.0218,0.0182,0.0192,0.0181,0.0172,0.02,0.02,0.02,0.0201,0,-0.0695,-0.0713,-0.0736,-0.0751,-0.0761,-0.076,-0.0742,-0.0717,-0.0659,-0.0594,-0.0483,-0.0393,-0.0191,-0.003,0.014,0.0216,0.0214,0.0253,0.0251,0.0158,0.0127,0.0134,0.0125,0.0203,0.0203,0.0203,0.0203,0.0203,-0.0709,-0.0737,-0.0765,-0.0775,-0.0792,-0.0794,-0.0762,-0.0728,-0.0672,-0.0565,-0.0476,-0.0333,-0.0197,0.006,0.0185,0.029,0.0286,0.0289,0.0285,0.0281,0.026,0.0234,0.0325,0.0326,0.0326,0.0326,0.0327,0,-0.0728,-0.0755,-0.0774,-0.0799,-0.082,-0.0817,-0.0775,-0.0723,-0.0644,-0.0552,-0.0441,-0.0263,-0.0106,0.0056,0.0221,0.0311,0.0283,0.0327,0.0264,0.026,0.0257,0.0232,0.0292,0.0292,0.0293,0.0293,0,0,-0.074,-0.0774,-0.0788,-0.0822,-0.0832,-0.0813,-0.0781,-0.0706,-0.0613,-0.048,-0.0377,-0.0289,-0.0099,0.0012,0.0129,0.0222,0.0215,0.0226,0.0238,0.0145,0.0141,0.0216,0.0172,0,0,0,0,0]}],[{"header":{"parameterUnit":"m.s-1","parameterCategory":2,"la1":30.2991,"la2":30.254,"lo1":-89.0895,"lo2":-89.0444,"dy":0.0017,"dx":0.0017,"nx":28,"ny":28,"refTime":"2024-08-19T03:00:00:Z","depth":"4","parameterNumber":2,"parameterNumberName":"U-component_of_CURRENTS"},"data":[0,0,0,0,0,0,0,0,0,0,0,0,0,0,0,0,0,0,0,0,0,0,0,0,0,0,0,0,0,0,0,0,0,0,0,0,0,0,0,0,0,0,0,0,0,0,0,0,0,0,0,0,0,0,0,0,0,0,-0.1259,-0.1259,0,-0.1257,-0.1257,-0.1256,-0.1248,-0.1249,-0.1249,-0.1249,-0.1255,-0.1255,-0.1255,0,0,0,0,0,0,0,0,0,0,0,0,0,-0.119,-0.1191,-0.1259,-0.1259,-0.126,-0.1257,-0.1257,-0.1256,-0.1248,-0.1249,-0.1249,-0.125,-0.1255,-0.1255,-0.1255,0,0,0,0,0,0,0,0,0,0,0,0,0,-0.1202,-0.1191,-0.1259,-0.126,-0.126,-0.1257,-0.1257,-0.1256,-0.1248,-0.1249,-0.1249,-0.125,-0.1255,-0.1255,-0.1255,-0.1243,0,0,-0.1254,-0.1254,0,0,0,0,0,0,0,0,-0.1201,-0.1204,-0.1259,-0.126,-0.1261,-0.1259,-0.1235,-0.1254,-0.1248,-0.1247,-0.1249,-0.125,-0.1261,-0.126,-0.125,-0.1243,-0.1244,-0.1254,-0.1254,-0.1254,-0.1254,0,0,0,0,0,0,0,-0.12,-0.1203,-0.1252,-0.126,-0.1261,-0.1238,-0.1241,-0.1237,-0.1247,-0.1247,-0.1248,-0.1257,-0.126,-0.125,-0.125,-0.1244,-0.1254,-0.1254,-0.1254,-0.1254,-0.1241,-0.1241,0,0,0,0,0,0,-0.1215,-0.1203,-0.1253,-0.1253,-0.1238,-0.124,-0.1242,-0.1254,-0.1246,-0.1247,-0.1256,-0.1256,-0.125,-0.1251,-0.1251,-0.1251,-0.1254,-0.1254,-0.1254,-0.1242,-0.1241,-0.1241,0,0,0,0,0,0,-0.1214,-0.122,-0.1253,-0.1232,-0.1235,-0.1242,-0.1254,-0.1254,-0.1266,-0.1254,-0.1254,-0.1272,-0.1251,-0.1251,-0.1256,-0.1251,-0.1254,-0.1253,-0.1242,-0.1242,-0.1241,-0.1243,0,0,0,0,0,0,-0.1212,-0.1219,-0.1236,-0.1233,-0.1237,-0.1258,-0.1254,-0.1254,-0.1272,-0.1272,-0.1268,-0.1267,-0.1251,-0.1257,-0.1256,-0.1251,-0.1253,-0.1242,-0.1242,-0.1241,-0.1243,-0.1243,-0.1243,0,0,0,0,0,-0.1209,-0.1229,-0.1237,-0.1244,-0.126,-0.1258,-0.1257,-0.1259,-0.1272,-0.1272,-0.1271,-0.1268,-0.1254,-0.1257,-0.1256,-0.125,-0.1242,-0.1242,-0.1241,-0.1244,-0.1243,-0.1243,0,0,0,0,0,0,-0.1205,-0.1231,-0.1239,-0.1266,-0.1268,-0.126,-0.1271,-0.1274,-0.1272,-0.1284,-0.1271,-0.1269,-0.1268,-0.1263,-0.1267,-0.1245,-0.1246,-0.1245,-0.1248,-0.1247,-0.1247,-0.1244,-0.1253,0,0,0,0,0,-0.1215,-0.1238,-0.1249,-0.1269,-0.1279,-0.128,-0.1285,-0.1286,-0.1286,-0.1287,-0.1282,-0.1276,-0.1261,-0.1261,-0.1248,-0.1245,-0.1237,-0.1239,-0.1239,-0.1238,-0.1235,-0.1232,-0.1231,-0.124,-0.124,-0.124,0,0,-0.1221,-0.1238,-0.1252,-0.127,-0.1277,-0.1284,-0.1283,-0.1299,-0.1297,-0.1289,-0.1292,-0.128,-0.1261,-0.1246,-0.1245,-0.1246,-0.1229,-0.1238,-0.1238,-0.1234,-0.1232,-0.1231,-0.123,-0.124,-0.124,-0.124,0,0,-0.1228,-0.126,-0.1276,-0.1284,-0.1303,-0.1302,-0.1315,-0.1318,-0.1316,-0.1317,-0.1302,-0.1286,-0.1282,-0.1248,-0.1234,-0.1228,-0.1228,-0.1234,-0.1229,-0.1227,-0.1226,-0.1226,-0.1201,-0.1199,-0.1233,-0.1233,-0.1233,0,-0.1235,-0.1253,-0.1277,-0.1289,-0.1298,-0.1316,-0.1322,-0.1322,-0.1321,-0.1316,-0.1324,-0.1296,-0.1273,-0.1242,-0.1227,-0.1225,-0.1227,-0.1232,-0.1227,-0.1226,-0.1226,-0.1201,-0.1198,-0.1233,-0.1233,-0.1233,-0.1233,0,-0.1238,-0.1263,-0.1275,-0.1298,-0.1308,-0.132,-0.1328,-0.1335,-0.1345,-0.1336,-0.1324,-0.1294,-0.1273,-0.1259,-0.1237,-0.1215,-0.1217,-0.1228,-0.1229,-0.1225,-0.1199,-0.1196,-0.1233,-0.1233,-0.1233,-0.1233,0,0,-0.1221,-0.1269,-0.1273,-0.1284,-0.1315,-0.1318,-0.133,-0.1328,-0.1331,-0.1333,-0.1322,-0.128,-0.1275,-0.1257,-0.1232,-0.1218,-0.1192,-0.1221,-0.1221,-0.1198,-0.1182,-0.109,-0.1077,-0.1218,-0.1218,-0.1218,-0.116,0,-0.1212,-0.1236,-0.126,-0.1277,-0.1289,-0.1313,-0.1316,-0.1322,-0.1326,-0.1321,-0.1302,-0.1285,-0.1274,-0.1258,-0.1245,-0.1202,-0.1187,-0.1206,-0.1188,-0.1186,-0.1107,-0.1072,-0.1217,-0.1158,-0.1157,-0.1157,-0.1156,0,-0.1196,-0.1215,-0.1235,-0.1264,-0.1272,-0.1285,-0.1297,-0.1299,-0.1304,-0.1305,-0.1304,-0.1297,-0.1257,-0.1261,-0.1211,-0.1232,-0.1205,-0.1181,-0.1179,-0.1091,-0.1088,-0.1166,-0.115,-0.1151,-0.1151,-0.1152,-0.1152,0,-0.1155,-0.1192,-0.1207,-0.122,-0.1257,-0.1267,-0.1283,-0.1295,-0.1289,-0.1296,-0.129,-0.1281,-0.1254,-0.1244,-0.1186,-0.1207,-0.1137,-0.116,-0.1055,-0.1048,-0.1151,-0.1152,-0.1135,-0.1135,-0.1135,-0.1135,-0.1135,0,-0.1123,-0.1137,-0.1195,-0.1204,-0.1211,-0.1248,-0.1252,-0.1264,-0.1275,-0.1258,-0.1279,-0.1249,-0.1253,-0.1215,-0.1187,-0.1092,-0.114,-0.1034,-0.1022,-0.115,-0.1152,-0.1147,-0.115,-0.1133,-0.1133,-0.1134,-0.1134,0,-0.1074,-0.1115,-0.1138,-0.1186,-0.1196,-0.1204,-0.1232,-0.1232,-0.1248,-0.1227,-0.1227,-0.1216,-0.1154,-0.1142,-0.1094,-0.106,-0.1,-0.0962,-0.1074,-0.1073,-0.0916,-0.0919,-0.0836,-0.0832,-0.0829,-0.0826,-0.0824,0,-0.1049,-0.106,-0.1118,-0.1128,-0.1153,-0.1172,-0.1181,-0.1211,-0.1203,-0.1187,-0.1161,-0.1117,-0.1098,-0.0945,-0.0957,-0.0895,-0.089,-0.0865,-0.0905,-0.0885,-0.0883,-0.0891,-0.0899,-0.0819,-0.0818,-0.0817,-0.0816,0,-0.1,-0.1037,-0.1058,-0.1075,-0.1096,-0.11,-0.1112,-0.1088,-0.1107,-0.1144,-0.1047,-0.0994,-0.0916,-0.0868,-0.0818,-0.0786,-0.0886,-0.0831,-0.0839,-0.0877,-0.0864,-0.0866,-0.0877,-0.0805,-0.0807,-0.0808,-0.0808,0,-0.0968,-0.0973,-0.1005,-0.1003,-0.103,-0.1001,-0.1017,-0.0987,-0.0974,-0.0969,-0.0935,-0.0889,-0.0897,-0.0807,-0.0765,-0.0717,-0.0713,-0.0708,-0.0722,-0.0734,-0.0727,-0.0698,-0.0558,0,0,0,0,0,-0.0927,-0.0916,-0.0921,-0.091,-0.0934,-0.0933,-0.0955,-0.0973,-0.0994,-0.0901,-0.091,-0.0833,-0.0742,-0.0724,-0.0648,-0.072,-0.0723,-0.0633,-0.0728,-0.0743,-0.0756,-0.0757,0,0,0,0,0,0,-0.0897,-0.0909,-0.0894,-0.0827,-0.0799,-0.0799,-0.0806,-0.0824,-0.0769,-0.08,-0.0747,-0.0786,-0.0704,-0.076,-0.0629,-0.0626,-0.0669,-0.0625,-0.0623,-0.0735,-0.0747,-0.0757,-0.0763,0,0,0,0,0]},{"header":{"parameterUnit":"m.s-1","parameterCategory":2,"la1":30.2991,"la2":30.254,"lo1":-89.0895,"lo2":-89.0444,"dy":0.0017,"dx":0.0017,"nx":28,"ny":28,"refTime":"2024-08-19T03:00:00:Z","depth":"4","parameterNumber":3,"parameterNumberName":"V-component_of_CURRENTS"},"data":[0,0,0,0,0,0,0,0,0,0,0,0,0,0,0,0,0,0,0,0,0,0,0,0,0,0,0,0,0,0,0,0,0,0,0,0,0,0,0,0,0,0,0,0,0,0,0,0,0,0,0,0,0,0,0,0,0,0,-0.0311,-0.0311,0,-0.0324,-0.0324,-0.0324,-0.0314,-0.0313,-0.0313,-0.0312,-0.0312,-0.0313,-0.0313,0,0,0,0,0,0,0,0,0,0,0,0,0,-0.0273,-0.0274,-0.0311,-0.0311,-0.0311,-0.0324,-0.0324,-0.0324,-0.0314,-0.0313,-0.0312,-0.0312,-0.0312,-0.0313,-0.0313,0,0,0,0,0,0,0,0,0,0,0,0,0,-0.0289,-0.0274,-0.0311,-0.0306,-0.0306,-0.0324,-0.0324,-0.0325,-0.0314,-0.0313,-0.0312,-0.0311,-0.0312,-0.0313,-0.0313,-0.0335,0,0,-0.0316,-0.0316,0,0,0,0,0,0,0,0,-0.0288,-0.0291,-0.0307,-0.0307,-0.0306,-0.0315,-0.0311,-0.0327,-0.0314,-0.0312,-0.0312,-0.0311,-0.0312,-0.0313,-0.0319,-0.0335,-0.0335,-0.0316,-0.0316,-0.0317,-0.0317,0,0,0,0,0,0,0,-0.0287,-0.029,-0.0318,-0.0307,-0.0307,-0.0302,-0.0304,-0.0314,-0.0318,-0.0312,-0.0311,-0.0311,-0.0312,-0.0318,-0.0319,-0.0335,-0.0316,-0.0317,-0.0317,-0.0317,-0.0383,-0.0384,0,0,0,0,0,0,-0.0284,-0.0289,-0.0317,-0.0318,-0.0293,-0.0303,-0.0305,-0.0314,-0.0318,-0.0317,-0.0312,-0.031,-0.0317,-0.0318,-0.0319,-0.0332,-0.0317,-0.0318,-0.0318,-0.0381,-0.0383,-0.0384,0,0,0,0,0,0,-0.0284,-0.0287,-0.0317,-0.0302,-0.0305,-0.0305,-0.0315,-0.0315,-0.0324,-0.0317,-0.0316,-0.0321,-0.0317,-0.0318,-0.0335,-0.0333,-0.0318,-0.0319,-0.038,-0.0382,-0.0384,-0.0368,0,0,0,0,0,0,-0.0283,-0.0287,-0.0296,-0.0302,-0.0306,-0.0331,-0.0316,-0.0316,-0.0324,-0.0323,-0.0325,-0.0324,-0.0316,-0.0334,-0.0336,-0.0333,-0.0319,-0.0378,-0.0381,-0.0383,-0.0366,-0.0369,-0.037,0,0,0,0,0,-0.0281,-0.0301,-0.0297,-0.03,-0.0318,-0.0332,-0.0334,-0.0331,-0.0326,-0.0335,-0.0338,-0.0324,-0.035,-0.0336,-0.0338,-0.0335,-0.0377,-0.038,-0.0383,-0.0366,-0.0368,-0.037,0,0,0,0,0,0,-0.0292,-0.0301,-0.0297,-0.0319,-0.0324,-0.0329,-0.034,-0.0338,-0.0349,-0.035,-0.034,-0.034,-0.0353,-0.0359,-0.0343,-0.0366,-0.0362,-0.0365,-0.0348,-0.0351,-0.0353,-0.0314,-0.032,0,0,0,0,0,-0.0298,-0.0313,-0.0317,-0.0335,-0.0339,-0.0341,-0.0347,-0.0347,-0.0354,-0.0358,-0.0358,-0.0365,-0.0368,-0.037,-0.0379,-0.0394,-0.0359,-0.0397,-0.0399,-0.0401,-0.0374,-0.0315,-0.0307,-0.0394,-0.0393,-0.0393,0,0,-0.0308,-0.0314,-0.0323,-0.0338,-0.0342,-0.0351,-0.0343,-0.0359,-0.036,-0.0358,-0.0367,-0.0373,-0.0376,-0.0386,-0.0393,-0.0388,-0.0366,-0.0404,-0.0405,-0.0377,-0.0317,-0.0308,-0.03,-0.0395,-0.0395,-0.0395,0,0,-0.0331,-0.034,-0.0357,-0.0362,-0.037,-0.0369,-0.0374,-0.0384,-0.0381,-0.0399,-0.0389,-0.0384,-0.0414,-0.0391,-0.0388,-0.041,-0.0379,-0.0436,-0.0408,-0.0352,-0.0342,-0.0334,-0.0297,-0.0286,-0.0434,-0.0434,-0.0434,0,-0.034,-0.036,-0.0365,-0.0377,-0.0376,-0.0376,-0.0386,-0.0388,-0.0401,-0.0386,-0.0404,-0.0396,-0.0402,-0.0372,-0.0384,-0.0406,-0.0383,-0.0393,-0.0348,-0.0339,-0.033,-0.0295,-0.0281,-0.0434,-0.0434,-0.0434,-0.0434,0,-0.0368,-0.0384,-0.0395,-0.0404,-0.0405,-0.0419,-0.0412,-0.0413,-0.0414,-0.0401,-0.0383,-0.0385,-0.0366,-0.0382,-0.0391,-0.0341,-0.0349,-0.0353,-0.0328,-0.0319,-0.0285,-0.0271,-0.0433,-0.0434,-0.0434,-0.0434,0,0,-0.0389,-0.041,-0.0414,-0.0412,-0.0418,-0.0419,-0.0416,-0.0397,-0.037,-0.038,-0.0337,-0.0343,-0.0324,-0.032,-0.0323,-0.0282,-0.0217,-0.0298,-0.0295,-0.0237,-0.0106,-0.0166,-0.0157,-0.0215,-0.0212,-0.021,-0.0112,0,-0.0406,-0.043,-0.0433,-0.0441,-0.0446,-0.0432,-0.0419,-0.0398,-0.0378,-0.0341,-0.0311,-0.0286,-0.0307,-0.0297,-0.0255,-0.023,-0.0179,-0.0243,-0.0144,-0.014,-0.0173,-0.0142,-0.0201,-0.0102,-0.0099,-0.0097,-0.0095,0,-0.0428,-0.0436,-0.0456,-0.0438,-0.0437,-0.044,-0.0393,-0.0382,-0.0323,-0.0302,-0.0254,-0.0232,-0.0175,-0.0199,-0.0105,-0.0151,-0.0118,-0.0096,-0.0092,-0.0134,-0.0174,-0.0111,-0.007,-0.0072,-0.0074,-0.0076,-0.0077,0,-0.0428,-0.0444,-0.0456,-0.0456,-0.0445,-0.0438,-0.0423,-0.0372,-0.0338,-0.027,-0.0236,-0.0163,-0.0136,-0.007,-0.0052,-0.0065,0.0044,0.0037,0.0026,0.0021,0.0042,0.0032,0.0137,0.0137,0.0137,0.0137,0.0136,0,-0.0436,-0.0443,-0.0461,-0.0466,-0.0451,-0.0441,-0.0404,-0.0373,-0.0313,-0.0272,-0.0216,-0.0178,-0.0103,-0.005,-0.0015,0.0031,0.008,0.0055,0.0055,0.0038,0.0027,0.0051,0.0039,0.014,0.0139,0.0139,0.0138,0,-0.0438,-0.0455,-0.0464,-0.0463,-0.0457,-0.0448,-0.0405,-0.0372,-0.0321,-0.0266,-0.0245,-0.017,-0.0114,-0.005,0.0046,0.0063,0.0123,0.013,0.0097,0.009,0.0062,0.005,0.0166,0.0165,0.0164,0.0163,0.0163,0,-0.0439,-0.0453,-0.0465,-0.0466,-0.0473,-0.0453,-0.0434,-0.0382,-0.0352,-0.0278,-0.0258,-0.0186,-0.0144,-0.004,0.0015,0.0107,0.0103,0.0148,0.0129,0.0083,0.0072,0.0061,0.005,0.0161,0.0161,0.0161,0.016,0,-0.0439,-0.0458,-0.0466,-0.0475,-0.0473,-0.0455,-0.0435,-0.0408,-0.0359,-0.0306,-0.0256,-0.0196,-0.0137,-0.0062,-0.0002,0.0058,0.013,0.0139,0.0142,0.0125,0.0078,0.0066,0.0056,0.0157,0.0158,0.0158,0.0158,0,-0.044,-0.0452,-0.0477,-0.0475,-0.0481,-0.0483,-0.0454,-0.0424,-0.0382,-0.0307,-0.0302,-0.0225,-0.0169,-0.0089,-0.0038,0.0015,0.0038,0.0065,0.0072,0.0076,0.0002,-0.0073,-0.0017,0,0,0,0,0,-0.0441,-0.046,-0.0468,-0.0481,-0.0492,-0.0496,-0.0469,-0.0441,-0.0395,-0.0363,-0.0326,-0.0275,-0.0185,-0.0138,-0.0091,-0.0063,0.0036,-0.0008,0.0066,0.0141,0.0144,0.0065,0,0,0,0,0,0,-0.0443,-0.0466,-0.0473,-0.0496,-0.0508,-0.0517,-0.0509,-0.0473,-0.0442,-0.0389,-0.0336,-0.0277,-0.0188,-0.0221,-0.0098,-0.0079,-0.0028,0.0048,0.0049,0.0139,0.0142,0.0145,0.0064,0,0,0,0,0]}]]